METAR Formatted Surface Weather Observation
Issued by NWS

Home | Current Version | Previous Version | Text Only | Print | Product List | Glossary On
Versions: 1 2 3 4 5 6 7 8 9 10 11 12 13 14 15 16 17 18 19 20 21 22 23 24 25 26 27 28 29 30 31 32 33 34 35 36 37 38 39 40 41 42 43 44 45 46 47 48 49 50
404
SAUS45 KABQ 270758 COR
MTRCQC
METAR KCQC 270753Z AUTO 29010KT 10SM SCT070 BKN090 07/M06 A2981 RMK
AO2 PK WND 27031/0700 RAB0656E05 SLP037 P0000 T00671056



USA.gov is the U.S. government's official web portal to all federal, state and local government web resources and services.